Regional Weather Roundup
Issued by NWS Grand Forks, ND

Home | Current Version | Previous Version | Graphics & Text | Print | Product List | Glossary On
Versions: 1 2 3 4 5 6 7 8 9 10 11 12 13 14 15 16 17 18 19 20 21 22 23 24 25 26 27 28 29 30 31 32 33 34 35 36 37 38 39 40 41 42 43 44 45 46 47 48 49 50
000
ASUS43 KFGF 260031
RWRFGF
PRAIRIE TO PINES  WEATHER ROUNDUP
NATIONAL WEATHER SERVICE EASTERN NORTH DAKOTA/GRAND FORKS ND
600 PM CST SUN JAN 25 2015

 **SATELLITE DATA USED TO AUGMENT SKY COVER AT AUTOMATED STATIONS**
 *****  WEATHER ACROSS EASTERN NORTH DAKOTA  *****

CITY           SKY/WX    TMP DP  RH WIND       PRES   REMARKS
GRAND FORKS    CLOUDY    26  19  74 S8        29.95F WCI  18
6HR MIN TEMP:  22; 6HR MAX TEMP:  26;

GRAND FRKS AFB CLOUDY    26  19  74 S9        29.94F WCI  17
GRAND FRKS NWS   N/A     25 N/A N/A S20         N/A  WCI  11
DEVILS LAKE    CLOUDY    27  21  80 S8        29.86F WCI  18
6HR MIN TEMP:  19; 6HR MAX TEMP:  27;

FARGO          CLOUDY    26  17  68 S6        29.99F WCI  19
WAHPETON ARPT  CLOUDY    27  19  74 SE5       30.01S WCI  21
$$

 ***** WEATHER ACROSS CENTRAL AND WESTERN NORTH DAKOTA  *****

CITY           SKY/WX    TMP DP  RH WIND       PRES   REMARKS
BISMARCK       CLOUDY    36  32  85 S3        29.89F
6HR MIN TEMP:  35; 6HR MAX TEMP:  37;

MINOT          MOCLDY    36  30  79 S10       29.79F
6HR MIN TEMP:  27; 6HR MAX TEMP:  36;

JAMESTOWN      CLOUDY    29  26  89 S10       29.90F WCI  20
6HR MIN TEMP:  23; 6HR MAX TEMP:  29;

MINOT AFB      MOCLDY    34  34  99 S8        29.78F
GARRISON         N/A     34  32  92 S5        29.83F
WILLISTON      PTCLDY    40  31  70 SW7       29.82S
6HR MIN TEMP:  36; 6HR MAX TEMP:  43;

DICKINSON      MOCLDY    41  30  65 SW15      29.83F
6HR MIN TEMP:  37; 6HR MAX TEMP:  46;

HETTINGER      PTCLDY    39  26  59 S5        29.90S
6HR MIN TEMP:  38; 6HR MAX TEMP:  46;

$$

 *****  OTHER AIRPORT OBSERVATIONS IN OUR AREA  *****

CITY           SKY/WX    TMP DP  RH WIND       PRES   REMARKS
WALHALLA         N/A     25  25 100 S8        29.85F WCI  16
GRAFTON AIRPOR NOT AVBL
VALLEY CITY AR NOT AVBL
CANDO          CLOUDY    25  23  93 S12       29.83F WCI  14
CAVALIER APRT  CLOUDY    27  23  86 S10       29.87F WCI  17
GWINNER        CLOUDY    30  30 100 SW10      29.98R WCI  21
SHEYENNE NWR     N/A     26  19  76 S3        29.95
ROLLA          CLOUDY    23  23 100 SW17      29.77F WCI   9
 ***** THE ABOVE OBSERVATIONS ARE NON NWS ARE NOT QUALITY
       CONTROLLED AND MAY MIS-REPORT RAIN FOR SNOW...
$$

  *****  WEATHER ACROSS NORTHERN MINNESOTA  *****

CITY           SKY/WX    TMP DP  RH WIND       PRES   REMARKS
FLAG ISLAND    MOCLDY    16  10  79 S9        29.90F WCI   4
WARROAD        CLOUDY    19  12  73 S8        29.91F WCI   9
ROSEAU         CLOUDY    19  12  73 S7        29.92F WCI  10
HALLOCK        CLOUDY    19  16  86 S15       29.91F WCI   5
THF RVR FALLS  CLOUDY    21  14  73 S10       29.94F WCI  10
6HR MIN TEMP:  14; 6HR MAX TEMP:  19;

BAUDETTE       CLOUDY    20  12  71 SW3       29.92F
6HR MIN TEMP:   9; 6HR MAX TEMP:  20;

WASKISH        CLOUDY    19  16  86 CALM      29.93F
CROOKSTON      CLOUDY    25  18  74 S9        29.96F WCI  15
STEPHEN NDAWN    N/A     21  16  79 S12         N/A  WCI   9
GREENBUSH NDAW   N/A     19  12  73 S12         N/A  WCI   7
$$
  *****  WEATHER ACROSS CENTRAL AND WEST MINNESOTA  *****

CITY           SKY/WX    TMP DP  RH WIND       PRES   REMARKS
FOSSTON        CLOUDY    21  16  79 SW9       29.96F WCI  11
BEMIDJI        CLOUDY    25  18  74 S5        29.94F WCI  19
PARK RAPIDS    CLOUDY    27  19  72 S6        29.97R WCI  20
6HR MIN TEMP:  25; 6HR MAX TEMP:  29;

ELBOW LAKE     CLOUDY    23  20  91 W3        30.01R
WADENA         CLOUDY    25  21  86 SW5       29.98S WCI  19
DETROIT LAKES  CLOUDY    27  21  80 SW5       29.99R WCI  21
MOORHEAD       CLOUDY    25  21  86 S6        30.00S WCI  18
FERGUS FALLS   CLOUDY    21  19  93 CALM      30.04R
MORRIS MN      CLOUDY    27  23  86 SW3       30.01R
STAPLES        MOCLDY    21  18  86 CALM      29.99R
$$
  *****  WEATHER ELSEWHERE ACROSS MINNESOTA  *****

CITY           SKY/WX    TMP DP  RH WIND       PRES   REMARKS
DULUTH         CLOUDY    20  14  77 CALM      30.01R
6HR MIN TEMP:  19; 6HR MAX TEMP:  20; 6HR PCP: TRACE;

INTRNTL FALLS  CLOUDY    17  10  74 SE3       29.94F
6HR MIN TEMP:   8; 6HR MAX TEMP:  19;

ELY            PTCLDY    14   9  79 S5        29.99S WCI   6
CLOQUET        CLEAR     18  12  79 CALM      30.02S
WHEATON        MOCLDY    23  18  80 CALM      30.04R
BRAINERD       PTCLDY    23  14  68 SE3       30.00S
6HR MIN TEMP:  22; 6HR MAX TEMP:  27;

HIBBING        CLOUDY    21  12  68 S7        29.99S WCI  12
6HR MIN TEMP:  20; 6HR MAX TEMP:  24;

ALEXANDRIA     CLOUDY    26  21  81 SW6       30.00R WCI  19
6HR MIN TEMP:  25; 6HR MAX TEMP:  27;

SAINT CLOUD    CLEAR     24  16  71 E3        30.02F
6HR MIN TEMP:  23; 6HR MAX TEMP:  28;

MINNEAPOLIS    PTCLDY    23  12  62 SE5       30.05S WCI  17
6HR MIN TEMP:  22; 6HR MAX TEMP:  27;

$$

  *****  WEATHER ACROSS SOUTH DAKOTA  *****

CITY           SKY/WX    TMP DP  RH WIND       PRES   REMARKS
SIOUX FALLS    CLOUDY    33  30  88 W3        30.02F
6HR MIN TEMP:  33; 6HR MAX TEMP:  35;

BROOKINGS      NOT AVBL
WATERTOWN      CLOUDY    30  27  88 W7        29.97S WCI  23
6HR MIN TEMP:  29; 6HR MAX TEMP:  30;

HURON          CLOUDY    33  30  88 S5        30.01F
6HR MIN TEMP:  31; 6HR MAX TEMP:  34;

SISSETON         N/A     24  21  88 SE6       29.98F WCI  17
ABERDEEN       CLOUDY    32  28  85 S8        29.98F WCI  25
6HR MIN TEMP:  29; 6HR MAX TEMP:  31;

MITCHELL       CLOUDY    35  31  85 S5        30.02F
PIERRE         MOCLDY    37  28  70 S5        29.97S
6HR MIN TEMP:  36; 6HR MAX TEMP:  43;

MOBRIDGE       CLOUDY    38  31  76 S3        29.91F
RAPID CITY     MOCLDY    43  23  45 SE5       29.95S
6HR MIN TEMP:  42; 6HR MAX TEMP:  50;

$$

  *****  SOME WEATHER IN NEARBY STATES *****

CITY           SKY/WX    TMP DP  RH WIND       PRES   REMARKS
GLASGOW MT     CLEAR     45  36  70 CALM      29.85R
6HR MIN TEMP:  36; 6HR MAX TEMP:  50;

GREAT FALLS MT CLOUDY    54  31  41 SW18      30.04R
6HR MIN TEMP:  52; 6HR MAX TEMP:  59;

CHEYENNE WY    CLEAR     46  27  47 NW14      30.14R
6HR MIN TEMP:  46; 6HR MAX TEMP:  52;

SCOTTSBLUFF NE CLEAR     47  34  60 W9        30.06R
6HR MIN TEMP:  43; 6HR MAX TEMP:  54; 6HR PCP: TRACE;

OMAHA NE       CLOUDY    38  32  79 NW6       30.08R
6HR MIN TEMP:  38; 6HR MAX TEMP:  43;

DES MOINES IA  CLOUDY    34  27  75 N10       30.05R
6HR MIN TEMP:  34; 6HR MAX TEMP:  36;

DAVENPORT IA   CLEAR     23  15  71 N13       30.01R WCI  11
6HR MIN TEMP:  23; 6HR MAX TEMP:  29; 6HR PCP: TRACE;

CHICAGO IL     CLOUDY    26  17  68 N16       29.94R WCI  14
6HR MIN TEMP:  26; 6HR MAX TEMP:  30; 6HR PCP:  0.01;

EAU CLAIRE WI  CLOUDY    21  10  62 CALM      30.04R
6HR MIN TEMP:  21; 6HR MAX TEMP:  24;

LA CROSSE WI   PTCLDY    24  14  65 N5        30.05R WCI  18
6HR MIN TEMP:  24; 6HR MAX TEMP:  31;

$$

  *****  SOME NATIONAL WEATHER *****

CITY           SKY/WX    TMP DP  RH WIND       PRES   REMARKS
LA GUARDIA NY  MOCLDY    35   9  33 NW14      29.91R
6HR MIN TEMP:  35; 6HR MAX TEMP:  42;

RALEIGH NC     PTCLDY    47  32  56 S5        29.84R
6HR MIN TEMP:  47; 6HR MAX TEMP:  55;

ATLANTA GA     MOCLDY    55  31  39 S9        29.76R
6HR MIN TEMP:  55; 6HR MAX TEMP:  60;

NEW ORLEANS LA PTCLDY    59  39  47 SW18      29.86F
6HR MIN TEMP:  59; 6HR MAX TEMP:  68;

OKLAHOMA CITY  PTCLDY    52  26  36 N14       30.08R
6HR MIN TEMP:  52; 6HR MAX TEMP:  59;

ALBUQUERQUE NM PTCLDY    54  21  27 W3        30.24S
6HR MIN TEMP:  43; 6HR MAX TEMP:  56;

SALT LAKE CITY PTCLDY    47  33  58 NW8       30.41S
6HR MIN TEMP:  43; 6HR MAX TEMP:  52;

LOS ANGELES CA CLOUDY    71  40  32 W6        29.96R


USA.gov is the U.S. government's official web portal to all federal, state and local government web resources and services.